Time,TemperatureF,DewpointF,PressureIn,WindDirection,WindDirectionDegrees,WindSpeedMPH,WindSpeedGustMPH,Humidity,HourlyPrecipIn,Conditions,Clouds,dailyrainin,SoftwareType,DateUTC
2013-02-09 00:01:00,10.7,7.6,30.37,North,349,0.0,0.0,87,0.00,RA,OVC,0.00,WeatherDisplay:10.37,2013-02-09 05:01:00,
2013-02-09 00:06:00,10.4,7.3,30.37,North,349,0.0,0.0,87,0.00,CLR,OVC,0.00,WeatherDisplay:10.37,2013-02-09 05:06:00,
2013-02-09 00:11:00,9.6,6.3,30.37,North,349,0.0,1.0,86,0.00,CLR,OVC,0.00,WeatherDisplay:10.37,2013-02-09 05:11:00,
2013-02-09 00:16:00,9.8,6.9,30.37,North,349,1.0,1.0,88,0.00,CLR,OVC,0.00,WeatherDisplay:10.37,2013-02-09 05:16:00,
2013-02-09 00:21:00,9.9,7.1,30.37,North,349,0.0,0.0,88,0.00,CLR,OVC,0.00,WeatherDisplay:10.37,2013-02-09 05:21:00,
2013-02-09 00:26:00,10.1,7.5,30.38,North,349,0.0,0.0,89,0.00,CLR,OVC,0.00,WeatherDisplay:10.37,2013-02-09 05:26:00,
2013-02-09 00:31:00,10.1,7.3,30.38,North,349,0.0,0.0,88,0.00,CLR,OVC,0.00,WeatherDisplay:10.37,2013-02-09 05:31:00,
2013-02-09 00:36:00,9.8,7.0,30.38,North,349,0.0,0.0,88,0.00,CLR,OVC,0.00,WeatherDisplay:10.37,2013-02-09 05:36:00,
2013-02-09 00:41:00,9.4,6.3,30.38,North,349,0.0,0.0,87,0.00,CLR,OVC,0.00,WeatherDisplay:10.37,2013-02-09 05:41:00,
2013-02-09 00:46:00,9.1,6.0,30.38,North,349,0.0,1.0,87,0.00,CLR,OVC,0.00,WeatherDisplay:10.37,2013-02-09 05:46:00,
2013-02-09 00:51:00,8.7,5.6,30.38,North,349,0.0,0.0,87,0.00,CLR,OVC,0.00,WeatherDisplay:10.37,2013-02-09 05:51:00,
2013-02-09 00:56:00,8.6,5.5,30.38,North,349,0.0,0.0,87,0.00,CLR,OVC,0.00,WeatherDisplay:10.37,2013-02-09 05:56:00,
2013-02-09 01:01:00,8.5,5.4,30.38,North,349,0.0,0.0,87,0.00,CLR,OVC,0.00,WeatherDisplay:10.37,2013-02-09 06:01:00,
2013-02-09 01:06:00,8.3,5.2,30.38,North,349,0.0,0.0,87,0.00,CLR,OVC,0.00,WeatherDisplay:10.37,2013-02-09 06:06:00,
2013-02-09 01:11:00,8.1,5.0,30.38,North,349,0.0,0.0,87,0.00,CLR,OVC,0.00,WeatherDisplay:10.37,2013-02-09 06:11:00,
2013-02-09 01:16:00,7.9,4.9,30.38,North,349,0.0,0.0,87,0.00,CLR,OVC,0.00,WeatherDisplay:10.37,2013-02-09 06:16:00,
2013-02-09 01:21:00,7.7,4.6,30.38,North,349,0.0,0.0,87,0.00,CLR,OVC,0.00,WeatherDisplay:10.37,2013-02-09 06:21:00,
2013-02-09 01:26:00,7.5,4.2,30.38,North,349,0.0,0.0,86,0.00,CLR,OVC,0.00,WeatherDisplay:10.37,2013-02-09 06:26:00,
2013-02-09 01:31:00,7.1,3.8,30.38,North,349,0.0,0.0,86,0.00,CLR,OVC,0.00,WeatherDisplay:10.37,2013-02-09 06:31:00,
2013-02-09 01:36:00,6.8,3.5,30.38,North,349,0.0,0.0,86,0.00,CLR,OVC,0.00,WeatherDisplay:10.37,2013-02-09 06:36:00,
2013-02-09 01:41:00,6.7,3.4,30.38,North,349,0.0,0.0,86,0.00,CLR,OVC,0.00,WeatherDisplay:10.37,2013-02-09 06:41:00,
2013-02-09 01:46:00,6.4,3.1,30.39,North,349,0.0,0.0,86,0.00,CLR,OVC,0.00,WeatherDisplay:10.37,2013-02-09 06:46:00,
2013-02-09 01:51:00,6.3,3.0,30.38,North,349,0.0,0.0,86,0.00,CLR,OVC,0.00,WeatherDisplay:10.37,2013-02-09 06:51:00,
2013-02-09 01:56:00,6.3,3.0,30.38,North,349,0.0,0.0,86,0.00,CLR,OVC,0.00,WeatherDisplay:10.37,2013-02-09 06:56:00,
2013-02-09 02:01:00,6.5,3.5,30.38,North,349,0.0,0.0,87,0.00,CLR,OVC,0.00,WeatherDisplay:10.37,2013-02-09 07:01:00,
2013-02-09 02:06:00,6.7,3.7,30.38,North,349,0.0,0.0,87,0.00,CLR,OVC,0.00,WeatherDisplay:10.37,2013-02-09 07:06:00,
2013-02-09 02:11:00,7.0,4.2,30.38,North,349,0.0,0.0,88,0.00,CLR,OVC,0.00,WeatherDisplay:10.37,2013-02-09 07:11:00,
2013-02-09 02:16:00,7.2,4.4,30.38,North,349,0.0,1.0,88,0.00,CLR,OVC,0.00,WeatherDisplay:10.37,2013-02-09 07:16:00,
2013-02-09 02:21:00,7.4,4.6,30.38,North,349,0.0,0.0,88,0.00,CLR,OVC,0.00,WeatherDisplay:10.37,2013-02-09 07:21:00,
2013-02-09 02:26:00,7.1,4.0,30.38,North,349,0.0,0.0,87,0.00,CLR,OVC,0.00,WeatherDisplay:10.37,2013-02-09 07:26:00,
2013-02-09 02:31:00,6.8,3.5,30.38,North,349,0.0,0.0,86,0.00,CLR,OVC,0.00,WeatherDisplay:10.37,2013-02-09 07:31:00,
2013-02-09 02:36:00,6.4,3.1,30.39,North,349,0.0,0.0,86,0.00,CLR,OVC,0.00,WeatherDisplay:10.37,2013-02-09 07:36:00,
2013-02-09 02:41:00,6.0,2.4,30.38,North,349,0.0,0.0,85,0.00,CLR,OVC,0.00,WeatherDisplay:10.37,2013-02-09 07:41:00,
2013-02-09 02:46:00,5.6,2.1,30.39,North,349,0.0,0.0,85,0.00,CLR,OVC,0.00,WeatherDisplay:10.37,2013-02-09 07:46:00,
2013-02-09 02:51:00,5.5,2.0,30.39,North,349,0.0,0.0,85,0.00,CLR,OVC,0.00,WeatherDisplay:10.37,2013-02-09 07:51:00,
2013-02-09 02:56:00,5.4,2.1,30.38,North,349,0.0,1.0,86,0.00,CLR,OVC,0.00,WeatherDisplay:10.37,2013-02-09 07:56:00,
2013-02-09 03:01:00,5.4,2.1,30.38,North,349,0.0,0.0,86,0.00,CLR,OVC,0.00,WeatherDisplay:10.37,2013-02-09 08:01:00,
2013-02-09 03:06:00,5.5,2.2,30.38,North,349,0.0,0.0,86,0.00,CLR,OVC,0.00,WeatherDisplay:10.37,2013-02-09 08:06:00,
2013-02-09 03:11:00,5.5,2.5,30.39,North,349,0.0,0.0,87,0.00,CLR,OVC,0.00,WeatherDisplay:10.37,2013-02-09 08:11:00,
2013-02-09 03:16:00,5.2,2.0,30.38,North,349,0.0,0.0,86,0.00,CLR,OVC,0.00,WeatherDisplay:10.37,2013-02-09 08:16:00,
2013-02-09 03:21:00,5.0,1.7,30.39,North,349,0.0,0.0,86,0.00,CLR,OVC,0.00,WeatherDisplay:10.37,2013-02-09 08:21:00,
2013-02-09 03:26:00,4.4,0.9,30.39,North,349,0.0,0.0,85,0.00,CLR,OVC,0.00,WeatherDisplay:10.37,2013-02-09 08:26:00,
2013-02-09 03:31:00,4.1,0.6,30.39,North,349,0.0,0.0,85,0.00,CLR,OVC,0.00,WeatherDisplay:10.37,2013-02-09 08:31:00,
2013-02-09 03:36:00,4.0,0.5,30.39,North,349,0.0,0.0,85,0.00,CLR,OVC,0.00,WeatherDisplay:10.37,2013-02-09 08:36:00,
2013-02-09 03:41:00,3.8,0.3,30.39,North,349,0.0,0.0,85,0.00,CLR,OVC,0.00,WeatherDisplay:10.37,2013-02-09 08:41:00,
2013-02-09 03:46:00,3.6,0.1,30.40,North,349,0.0,0.0,85,0.00,CLR,OVC,0.00,WeatherDisplay:10.37,2013-02-09 08:46:00,
2013-02-09 03:51:00,3.3,-0.2,30.40,North,349,0.0,0.0,85,0.00,CLR,OVC,0.00,WeatherDisplay:10.37,2013-02-09 08:51:00,
2013-02-09 03:56:00,3.2,-0.5,30.40,North,349,0.0,0.0,84,0.00,CLR,OVC,0.00,WeatherDisplay:10.37,2013-02-09 08:56:00,
2013-02-09 04:01:00,3.0,-0.7,30.40,North,349,0.0,0.0,84,0.00,CLR,OVC,0.00,WeatherDisplay:10.37,2013-02-09 09:01:00,
2013-02-09 04:06:00,3.2,-0.1,30.40,North,349,0.0,0.0,86,0.00,CLR,OVC,0.00,WeatherDisplay:10.37,2013-02-09 09:06:00,
2013-02-09 04:11:00,3.5,0.3,30.40,North,349,0.0,0.0,86,0.00,CLR,OVC,0.00,WeatherDisplay:10.37,2013-02-09 09:11:00,
2013-02-09 04:16:00,3.7,0.4,30.40,North,349,0.0,0.0,86,0.00,CLR,OVC,0.00,WeatherDisplay:10.37,2013-02-09 09:16:00,
2013-02-09 04:21:00,3.9,0.6,30.40,North,349,0.0,0.0,86,0.00,CLR,OVC,0.00,WeatherDisplay:10.37,2013-02-09 09:21:00,
2013-02-09 04:26:00,3.5,0.0,30.40,North,349,0.0,0.0,85,0.00,CLR,OVC,0.00,WeatherDisplay:10.37,2013-02-09 09:26:00,
2013-02-09 04:31:00,2.8,-0.7,30.40,North,349,0.0,0.0,85,0.00,CLR,OVC,0.00,WeatherDisplay:10.37,2013-02-09 09:31:00,
2013-02-09 04:36:00,2.8,-0.7,30.41,North,349,1.0,2.0,85,0.00,CLR,OVC,0.00,WeatherDisplay:10.37,2013-02-09 09:36:00,
2013-02-09 04:41:00,2.6,-0.9,30.41,North,349,0.0,1.0,85,0.00,CLR,OVC,0.00,WeatherDisplay:10.37,2013-02-09 09:41:00,
2013-02-09 04:46:00,2.6,-0.9,30.41,North,349,0.0,1.0,85,0.00,CLR,OVC,0.00,WeatherDisplay:10.37,2013-02-09 09:46:00,
2013-02-09 04:51:00,2.6,-0.9,30.41,North,349,0.0,0.0,85,0.00,CLR,OVC,0.00,WeatherDisplay:10.37,2013-02-09 09:51:00,
2013-02-09 04:56:00,2.5,-1.0,30.41,North,349,0.0,0.0,85,0.00,CLR,OVC,0.00,WeatherDisplay:10.37,2013-02-09 09:56:00,
2013-02-09 05:01:00,2.2,-1.5,30.41,North,349,0.0,0.0,84,0.00,FEW,OVC,0.00,WeatherDisplay:10.37,2013-02-09 10:01:00,
2013-02-09 05:06:00,2.0,-1.8,30.41,North,349,0.0,0.0,84,0.00,FEW,OVC,0.00,WeatherDisplay:10.37,2013-02-09 10:06:00,
2013-02-09 05:11:00,1.8,-1.9,30.42,North,349,0.0,0.0,84,0.00,FEW,OVC,0.00,WeatherDisplay:10.37,2013-02-09 10:11:00,
2013-02-09 05:16:00,1.8,-2.0,30.42,North,349,0.0,0.0,84,0.00,FEW,OVC,0.00,WeatherDisplay:10.37,2013-02-09 10:16:00,
2013-02-09 05:21:00,1.7,-2.0,30.41,North,349,0.0,0.0,84,0.00,FEW,OVC,0.00,WeatherDisplay:10.37,2013-02-09 10:21:00,
2013-02-09 05:26:00,1.8,-1.7,30.42,North,349,0.0,0.0,85,0.00,FEW,OVC,0.00,WeatherDisplay:10.37,2013-02-09 10:26:00,
2013-02-09 05:31:00,2.0,-1.2,30.41,North,349,0.0,0.0,86,0.00,FEW,OVC,0.00,WeatherDisplay:10.37,2013-02-09 10:31:00,
2013-02-09 05:36:00,2.1,-1.4,30.41,North,349,0.0,1.0,85,0.00,FEW,OVC,0.00,WeatherDisplay:10.37,2013-02-09 10:36:00,
2013-02-09 05:41:00,2.1,-1.4,30.41,North,349,0.0,0.0,85,0.00,FEW,OVC,0.00,WeatherDisplay:10.37,2013-02-09 10:41:00,
2013-02-09 05:46:00,2.1,-1.4,30.41,North,349,0.0,0.0,85,0.00,FEW,OVC,0.00,WeatherDisplay:10.37,2013-02-09 10:46:00,
2013-02-09 05:51:00,2.1,-1.4,30.40,North,349,0.0,0.0,85,0.00,FEW,OVC,0.00,WeatherDisplay:10.37,2013-02-09 10:51:00,
2013-02-09 05:56:00,2.3,-0.9,30.40,North,349,0.0,0.0,86,0.00,FEW,OVC,0.00,WeatherDisplay:10.37,2013-02-09 10:56:00,
2013-02-09 06:01:00,2.5,-0.7,30.40,North,349,0.0,0.0,86,0.00,BKN,OVC,0.00,WeatherDisplay:10.37,2013-02-09 11:01:00,
2013-02-09 06:06:00,2.4,-1.1,30.40,North,349,0.0,0.0,85,0.00,BKN,OVC,0.00,WeatherDisplay:10.37,2013-02-09 11:06:00,
2013-02-09 06:11:00,2.1,-1.7,30.41,North,349,0.0,0.0,84,0.00,BKN,OVC,0.00,WeatherDisplay:10.37,2013-02-09 11:11:00,
2013-02-09 06:16:00,1.6,-2.1,30.41,North,349,0.0,0.0,84,0.00,BKN,OVC,0.00,WeatherDisplay:10.37,2013-02-09 11:16:00,
2013-02-09 06:21:00,1.3,-2.4,30.42,North,349,0.0,0.0,84,0.00,BKN,OVC,0.00,WeatherDisplay:10.37,2013-02-09 11:21:00,
2013-02-09 06:26:00,1.0,-2.7,30.42,North,349,0.0,0.0,84,0.00,BKN,OVC,0.00,WeatherDisplay:10.37,2013-02-09 11:26:00,
2013-02-09 06:31:00,0.8,-3.2,30.42,North,349,0.0,0.0,83,0.00,BKN,OVC,0.00,WeatherDisplay:10.37,2013-02-09 11:31:00,
2013-02-09 06:36:00,0.3,-3.6,30.41,North,349,0.0,2.0,83,0.00,BKN,OVC,0.00,WeatherDisplay:10.37,2013-02-09 11:36:00,
2013-02-09 06:41:00,0.1,-3.6,30.41,North,349,1.0,1.0,84,0.00,BKN,OVC,0.00,WeatherDisplay:10.37,2013-02-09 11:41:00,
2013-02-09 06:46:00,0.3,-3.1,30.41,North,349,0.0,0.0,85,0.00,BKN,OVC,0.00,WeatherDisplay:10.37,2013-02-09 11:46:00,
2013-02-09 06:51:00,0.6,-2.8,30.41,North,349,0.0,1.0,85,0.00,BKN,OVC,0.00,WeatherDisplay:10.37,2013-02-09 11:51:00,
2013-02-09 06:56:00,0.8,-2.6,30.40,North,349,0.0,0.0,85,0.00,BKN,OVC,0.00,WeatherDisplay:10.37,2013-02-09 11:56:00,
2013-02-09 07:01:00,0.8,-2.7,30.40,North,349,0.0,0.0,85,0.00,BKN,OVC,0.00,WeatherDisplay:10.37,2013-02-09 12:01:00,
2013-02-09 07:06:00,0.8,-2.7,30.40,North,349,0.0,0.0,85,0.00,BKN,OVC,0.00,WeatherDisplay:10.37,2013-02-09 12:06:00,
2013-02-09 07:11:00,1.0,-2.5,30.40,North,349,0.0,0.0,85,0.00,BKN,OVC,0.00,WeatherDisplay:10.37,2013-02-09 12:11:00,
2013-02-09 07:16:00,1.2,-2.3,30.41,North,349,0.0,0.0,85,0.00,BKN,OVC,0.00,WeatherDisplay:10.37,2013-02-09 12:16:00,
2013-02-09 07:21:00,0.8,-2.6,30.41,North,349,0.0,1.0,85,0.00,BKN,OVC,0.00,WeatherDisplay:10.37,2013-02-09 12:21:00,
2013-02-09 07:26:00,-0.3,-4.2,30.42,North,349,0.0,1.0,83,0.00,BKN,OVC,0.00,WeatherDisplay:10.37,2013-02-09 12:26:00,
2013-02-09 07:31:00,-0.8,-4.8,30.42,North,349,0.0,0.0,83,0.00,BKN,OVC,0.00,WeatherDisplay:10.37,2013-02-09 12:31:00,
2013-02-09 07:36:00,-1.0,-4.9,30.42,North,349,0.0,0.0,83,0.00,BKN,OVC,0.00,WeatherDisplay:10.37,2013-02-09 12:36:00,
2013-02-09 07:41:00,-1.3,-5.2,30.42,North,349,0.0,0.0,83,0.00,BKN,OVC,0.00,WeatherDisplay:10.37,2013-02-09 12:41:00,
2013-02-09 07:46:00,-1.4,-5.3,30.42,North,349,0.0,0.0,83,0.00,BKN,OVC,0.00,WeatherDisplay:10.37,2013-02-09 12:46:00,
2013-02-09 07:51:00,-1.3,-5.0,30.42,North,349,0.0,0.0,84,0.00,BKN,OVC,0.00,WeatherDisplay:10.37,2013-02-09 12:51:00,
2013-02-09 07:56:00,-1.0,-4.4,30.42,North,349,0.0,0.0,85,0.00,BKN,OVC,0.00,WeatherDisplay:10.37,2013-02-09 12:56:00,
2013-02-09 08:01:00,-0.5,-4.0,30.43,North,349,0.0,0.0,85,0.00,SCT,OVC,0.00,WeatherDisplay:10.37,2013-02-09 13:01:00,
2013-02-09 08:06:00,-0.4,-3.8,30.43,North,349,0.0,0.0,85,0.00,SCT,OVC,0.00,WeatherDisplay:10.37,2013-02-09 13:06:00,
2013-02-09 08:11:00,-0.2,-3.7,30.43,North,349,0.0,0.0,85,0.00,SCT,OVC,0.00,WeatherDisplay:10.37,2013-02-09 13:11:00,
2013-02-09 08:16:00,0.0,-3.4,30.42,North,349,0.0,0.0,85,0.00,SCT,OVC,0.00,WeatherDisplay:10.37,2013-02-09 13:16:00,
2013-02-09 08:21:00,0.9,-2.1,30.42,North,349,0.0,0.0,87,0.00,SCT,OVC,0.00,WeatherDisplay:10.37,2013-02-09 13:21:00,
2013-02-09 08:26:00,2.0,-0.8,30.42,North,349,0.0,0.0,88,0.00,SCT,OVC,0.00,WeatherDisplay:10.37,2013-02-09 13:26:00,
2013-02-09 08:31:00,1.9,-1.1,30.43,North,349,0.0,1.0,87,0.00,SCT,OVC,0.00,WeatherDisplay:10.37,2013-02-09 13:31:00,
2013-02-09 09:25:00,9.2,6.6,30.42,North,350,0.0,0.0,89,0.00,SCT,OVC,0.00,WeatherDisplay:10.37,2013-02-09 14:25:00,
2013-02-09 09:30:00,11.0,8.7,30.42,North,349,0.0,0.0,90,0.00,SCT,OVC,0.00,WeatherDisplay:10.37,2013-02-09 14:30:00,
2013-02-09 09:35:00,12.6,10.5,30.42,North,354,0.0,2.0,91,0.00,SCT,OVC,0.00,WeatherDisplay:10.37,2013-02-09 14:35:00,
2013-02-09 09:40:00,14.1,12.0,30.42,NE,49,0.0,2.0,91,0.00,SCT,OVC,0.00,WeatherDisplay:10.37,2013-02-09 14:40:00,
2013-02-09 09:45:00,15.5,13.3,30.42,SE,129,0.0,3.0,91,0.00,SCT,OVC,0.00,WeatherDisplay:10.37,2013-02-09 14:45:00,
2013-02-09 09:50:00,16.7,14.2,30.42,SE,129,1.0,4.0,90,0.00,SCT,OVC,0.00,WeatherDisplay:10.37,2013-02-09 14:50:00,
2013-02-09 09:55:00,17.7,15.2,30.42,SE,131,2.0,3.0,90,0.00,SCT,OVC,0.00,WeatherDisplay:10.37,2013-02-09 14:55:00,
2013-02-09 10:00:00,18.4,15.7,30.41,SE,130,2.0,5.0,89,0.00,SCT,OVC,0.00,WeatherDisplay:10.37,2013-02-09 15:00:00,
2013-02-09 10:05:00,19.1,16.4,30.42,SE,136,1.0,4.0,89,0.00,SCT,OVC,0.00,WeatherDisplay:10.37,2013-02-09 15:05:00,
2013-02-09 10:10:00,19.6,16.3,30.42,SSE,151,2.0,7.0,87,0.00,SCT,OVC,0.00,WeatherDisplay:10.37,2013-02-09 15:10:00,
2013-02-09 10:15:00,20.0,16.5,30.42,SSE,148,1.0,4.0,86,0.00,SCT,OVC,0.00,WeatherDisplay:10.37,2013-02-09 15:15:00,
2013-02-09 10:20:00,20.4,16.6,30.42,SSE,155,2.0,6.0,85,0.00,SCT,OVC,0.00,WeatherDisplay:10.37,2013-02-09 15:20:00,
2013-02-09 10:25:00,20.7,16.7,30.42,SSE,158,1.0,6.0,84,0.00,SCT,OVC,0.00,WeatherDisplay:10.37,2013-02-09 15:25:00,
2013-02-09 10:30:00,21.2,16.9,30.42,SSE,148,5.0,7.0,83,0.00,SCT,OVC,0.00,WeatherDisplay:10.37,2013-02-09 15:30:00,
2013-02-09 10:35:00,21.7,17.1,30.42,SE,135,2.0,6.0,82,0.00,SCT,OVC,0.00,WeatherDisplay:10.37,2013-02-09 15:35:00,
2013-02-09 10:40:00,22.1,17.2,30.42,SE,144,2.0,5.0,81,0.00,SCT,OVC,0.00,WeatherDisplay:10.37,2013-02-09 15:40:00,
2013-02-09 10:45:00,22.6,17.4,30.42,SSE,148,2.0,6.0,80,0.00,SCT,OVC,0.00,WeatherDisplay:10.37,2013-02-09 15:45:00,
2013-02-09 10:50:00,22.9,17.4,30.41,SSE,162,5.0,7.0,79,0.00,SCT,OVC,0.00,WeatherDisplay:10.37,2013-02-09 15:50:00,
2013-02-09 10:55:00,23.3,17.7,30.42,SSE,168,2.0,5.0,79,0.00,SCT,OVC,0.00,WeatherDisplay:10.37,2013-02-09 15:55:00,
2013-02-09 11:00:00,23.5,17.7,30.41,SSE,168,3.0,8.0,78,0.00,SCT,OVC,0.00,WeatherDisplay:10.37,2013-02-09 16:00:00,
2013-02-09 11:05:00,23.9,18.1,30.41,SSE,156,3.0,8.0,78,0.00,SCT,OVC,0.00,WeatherDisplay:10.37,2013-02-09 16:05:00,
2013-02-09 11:10:00,24.5,18.3,30.41,SSE,147,2.0,5.0,77,0.00,SCT,OVC,0.00,WeatherDisplay:10.37,2013-02-09 16:10:00,
2013-02-09 11:15:00,24.9,18.4,30.41,SSE,152,2.0,5.0,76,0.00,SCT,OVC,0.00,WeatherDisplay:10.37,2013-02-09 16:15:00,
2013-02-09 11:20:00,25.4,18.6,30.41,SE,139,1.0,5.0,75,0.01,RA,OVC,0.01,WeatherDisplay:10.37,2013-02-09 16:20:00,
2013-02-09 11:25:00,25.9,18.8,30.41,SE,145,2.0,4.0,74,0.00,SCT,OVC,0.01,WeatherDisplay:10.37,2013-02-09 16:25:00,
2013-02-09 11:30:00,26.2,18.7,30.41,SSE,161,5.0,6.0,73,0.00,SCT,OVC,0.01,WeatherDisplay:10.37,2013-02-09 16:30:00,
2013-02-09 11:35:00,26.2,18.7,30.41,SSE,165,1.0,6.0,73,0.00,SCT,OVC,0.01,WeatherDisplay:10.37,2013-02-09 16:35:00,
2013-02-09 11:40:00,26.2,18.4,30.41,South,169,3.0,8.0,72,0.00,SCT,OVC,0.01,WeatherDisplay:10.37,2013-02-09 16:40:00,
2013-02-09 11:45:00,26.5,19.0,30.40,SSE,168,3.0,6.0,73,0.00,SCT,OVC,0.01,WeatherDisplay:10.37,2013-02-09 16:45:00,
2013-02-09 11:50:00,26.7,18.9,30.40,South,176,3.0,8.0,72,0.00,SCT,OVC,0.01,WeatherDisplay:10.37,2013-02-09 16:50:00,
2013-02-09 11:55:00,26.9,18.8,30.40,South,182,5.0,12.0,71,0.00,SCT,OVC,0.01,WeatherDisplay:10.37,2013-02-09 16:55:00,
2013-02-09 12:00:00,26.7,18.6,30.40,South,180,5.0,9.0,71,0.00,FEW,OVC,0.01,WeatherDisplay:10.37,2013-02-09 17:00:00,
2013-02-09 12:05:00,26.9,18.7,30.39,South,176,5.0,7.0,71,0.00,FEW,OVC,0.01,WeatherDisplay:10.37,2013-02-09 17:05:00,
2013-02-09 12:10:00,27.2,19.4,30.39,South,172,3.0,8.0,72,0.00,FEW,OVC,0.01,WeatherDisplay:10.37,2013-02-09 17:10:00,
2013-02-09 12:15:00,27.6,19.1,30.39,SSE,164,3.0,9.0,70,0.00,FEW,OVC,0.01,WeatherDisplay:10.37,2013-02-09 17:15:00,
2013-02-09 12:20:00,27.8,19.3,30.39,SSE,163,5.0,12.0,70,0.01,RA,OVC,0.02,WeatherDisplay:10.37,2013-02-09 17:20:00,
2013-02-09 12:25:00,27.9,19.4,30.39,South,170,3.0,9.0,70,0.00,FEW,OVC,0.02,WeatherDisplay:10.37,2013-02-09 17:25:00,
2013-02-09 12:30:00,27.9,19.0,30.38,South,173,5.0,12.0,69,0.00,FEW,OVC,0.02,WeatherDisplay:10.37,2013-02-09 17:30:00,
2013-02-09 12:35:00,28.2,19.6,30.37,SSE,162,2.0,7.0,70,0.00,FEW,OVC,0.02,WeatherDisplay:10.37,2013-02-09 17:35:00,
2013-02-09 12:40:00,28.2,19.0,30.38,South,170,6.0,10.0,68,0.00,FEW,OVC,0.02,WeatherDisplay:10.37,2013-02-09 17:40:00,
2013-02-09 12:45:00,28.4,19.5,30.37,South,172,3.0,7.0,69,0.00,FEW,OVC,0.02,WeatherDisplay:10.37,2013-02-09 17:45:00,
2013-02-09 12:50:00,28.5,19.3,30.37,South,172,5.0,12.0,68,0.00,FEW,OVC,0.02,WeatherDisplay:10.37,2013-02-09 17:50:00,
2013-02-09 12:55:00,28.7,19.4,30.37,South,176,2.0,9.0,68,0.00,FEW,OVC,0.02,WeatherDisplay:10.37,2013-02-09 17:55:00,
2013-02-09 13:00:00,29.0,20.1,30.36,South,170,6.0,10.0,69,0.01,RA,OVC,0.03,WeatherDisplay:10.37,2013-02-09 18:00:00,
2013-02-09 13:05:00,29.1,19.8,30.36,South,169,3.0,10.0,68,0.00,FEW,OVC,0.03,WeatherDisplay:10.37,2013-02-09 18:05:00,
2013-02-09 13:10:00,29.3,20.4,30.36,South,172,2.0,7.0,69,0.00,FEW,OVC,0.03,WeatherDisplay:10.37,2013-02-09 18:10:00,
2013-02-09 13:15:00,29.5,20.2,30.35,South,170,5.0,9.0,68,0.00,FEW,OVC,0.03,WeatherDisplay:10.37,2013-02-09 18:15:00,
2013-02-09 13:20:00,29.7,20.4,30.35,South,172,2.0,6.0,68,0.00,FEW,OVC,0.03,WeatherDisplay:10.37,2013-02-09 18:20:00,
2013-02-09 13:25:00,30.0,20.7,30.35,SSE,166,3.0,5.0,68,0.00,FEW,OVC,0.03,WeatherDisplay:10.37,2013-02-09 18:25:00,
2013-02-09 13:30:00,30.1,20.1,30.34,South,170,6.0,10.0,66,0.00,FEW,OVC,0.03,WeatherDisplay:10.37,2013-02-09 18:30:00,
2013-02-09 13:35:00,29.9,20.6,30.34,South,177,5.0,9.0,68,0.01,RA,OVC,0.04,WeatherDisplay:10.37,2013-02-09 18:35:00,
2013-02-09 13:40:00,30.2,20.9,30.34,South,179,3.0,10.0,68,0.00,FEW,OVC,0.04,WeatherDisplay:10.37,2013-02-09 18:40:00,
2013-02-09 13:45:00,30.4,20.8,30.34,South,175,6.0,8.0,67,0.00,FEW,OVC,0.04,WeatherDisplay:10.37,2013-02-09 18:45:00,
2013-02-09 13:50:00,30.8,21.1,30.33,South,174,5.0,8.0,67,0.00,FEW,OVC,0.04,WeatherDisplay:10.37,2013-02-09 18:50:00,
2013-02-09 13:55:00,30.6,20.9,30.33,South,173,6.0,12.0,67,0.00,FEW,OVC,0.04,WeatherDisplay:10.37,2013-02-09 18:55:00,
2013-02-09 14:00:00,30.6,20.9,30.33,South,171,6.0,12.0,67,0.00,FEW,OVC,0.04,WeatherDisplay:10.37,2013-02-09 19:00:00,
2013-02-09 14:05:00,30.6,20.9,30.33,South,170,6.0,9.0,67,0.01,RA,OVC,0.05,WeatherDisplay:10.37,2013-02-09 19:05:00,
2013-02-09 14:10:00,30.7,21.1,30.32,SSE,166,3.0,9.0,67,0.00,FEW,OVC,0.05,WeatherDisplay:10.37,2013-02-09 19:10:00,
2013-02-09 14:15:00,31.0,21.0,30.32,South,175,5.0,7.0,66,0.00,FEW,OVC,0.05,WeatherDisplay:10.37,2013-02-09 19:15:00,
2013-02-09 14:20:00,30.9,21.2,30.32,South,177,5.0,8.0,67,0.00,FEW,OVC,0.05,WeatherDisplay:10.37,2013-02-09 19:20:00,
2013-02-09 14:30:00,31.0,21.7,30.31,SSE,158,5.0,12.0,68,0.00,FEW,OVC,0.05,WeatherDisplay:10.37,2013-02-09 19:30:00,
2013-02-09 14:35:00,31.3,21.6,30.31,SSE,153,3.0,8.0,67,0.00,FEW,OVC,0.05,WeatherDisplay:10.37,2013-02-09 19:35:00,
2013-02-09 14:40:00,31.6,21.9,30.31,SSE,152,3.0,8.0,67,0.00,FEW,OVC,0.05,WeatherDisplay:10.37,2013-02-09 19:40:00,
2013-02-09 14:45:00,31.9,22.2,30.31,SSE,152,3.0,9.0,67,0.01,RA,OVC,0.06,WeatherDisplay:10.37,2013-02-09 19:45:00,
2013-02-09 14:50:00,32.0,21.6,30.31,SSE,164,5.0,7.0,65,0.00,FEW,OVC,0.06,WeatherDisplay:10.37,2013-02-09 19:50:00,
2013-02-09 14:55:00,31.9,21.4,30.31,South,169,2.0,12.0,65,0.00,FEW,OVC,0.06,WeatherDisplay:10.37,2013-02-09 19:55:00,
2013-02-09 15:00:00,32.2,22.1,30.30,SSE,159,5.0,8.0,66,0.00,FEW,OVC,0.06,WeatherDisplay:10.37,2013-02-09 20:00:00,
2013-02-09 15:05:00,32.1,21.3,30.30,South,172,3.0,10.0,64,0.00,FEW,OVC,0.07,WeatherDisplay:10.37,2013-02-09 20:05:00,
2013-02-09 15:10:00,32.2,21.7,30.30,South,183,2.0,5.0,65,0.00,FEW,OVC,0.07,WeatherDisplay:10.37,2013-02-09 20:10:00,
2013-02-09 15:15:00,32.7,22.2,30.30,South,170,3.0,6.0,65,0.00,FEW,OVC,0.07,WeatherDisplay:10.37,2013-02-09 20:15:00,
2013-02-09 15:20:00,32.8,22.0,30.30,SSE,157,5.0,9.0,64,0.00,FEW,OVC,0.07,WeatherDisplay:10.37,2013-02-09 20:20:00,
2013-02-09 15:25:00,32.6,21.4,30.29,South,176,5.0,8.0,63,0.00,FEW,OVC,0.07,WeatherDisplay:10.37,2013-02-09 20:25:00,
2013-02-09 15:30:00,32.8,22.3,30.29,South,175,3.0,6.0,65,0.00,FEW,OVC,0.07,WeatherDisplay:10.37,2013-02-09 20:30:00,
2013-02-09 15:35:00,32.7,21.5,30.29,South,178,2.0,10.0,63,0.00,FEW,OVC,0.07,WeatherDisplay:10.37,2013-02-09 20:35:00,
2013-02-09 15:40:00,32.7,21.9,30.29,South,175,3.0,8.0,64,0.01,RA,OVC,0.08,WeatherDisplay:10.37,2013-02-09 20:40:00,
2013-02-09 15:45:00,32.9,22.0,30.29,SSE,161,6.0,12.0,64,0.00,FEW,OVC,0.08,WeatherDisplay:10.37,2013-02-09 20:45:00,
2013-02-09 15:50:00,32.9,22.0,30.29,SSE,165,2.0,7.0,64,0.00,FEW,OVC,0.08,WeatherDisplay:10.37,2013-02-09 20:50:00,
2013-02-09 16:00:00,33.0,22.1,30.29,SSE,155,2.0,7.0,64,0.00,FEW,OVC,0.08,WeatherDisplay:10.37,2013-02-09 21:00:00,
2013-02-09 16:05:00,33.2,22.3,30.29,SSE,152,2.0,5.0,64,0.01,RA,OVC,0.09,WeatherDisplay:10.37,2013-02-09 21:05:00,
2013-02-09 16:10:00,33.2,21.6,30.29,SSE,159,5.0,9.0,62,0.00,FEW,OVC,0.09,WeatherDisplay:10.37,2013-02-09 21:10:00,
2013-02-09 16:15:00,33.0,21.8,30.29,SSE,163,5.0,12.0,63,0.00,FEW,OVC,0.09,WeatherDisplay:10.37,2013-02-09 21:15:00,
2013-02-09 16:20:00,32.8,21.6,30.29,South,169,5.0,12.0,63,0.00,FEW,OVC,0.09,WeatherDisplay:10.37,2013-02-09 21:20:00,
2013-02-09 16:25:00,32.8,21.6,30.29,SSE,163,5.0,9.0,63,0.00,FEW,OVC,0.09,WeatherDisplay:10.37,2013-02-09 21:25:00,
2013-02-09 16:30:00,32.8,21.6,30.29,SSE,164,3.0,12.0,63,0.00,FEW,OVC,0.09,WeatherDisplay:10.37,2013-02-09 21:30:00,
2013-02-09 16:35:00,32.8,21.6,30.29,SSE,162,5.0,12.0,63,0.00,FEW,OVC,0.09,WeatherDisplay:10.37,2013-02-09 21:35:00,
2013-02-09 16:40:00,32.8,21.2,30.28,SSE,156,5.0,9.0,62,0.00,FEW,OVC,0.09,WeatherDisplay:10.37,2013-02-09 21:40:00,
2013-02-09 16:45:00,32.9,21.3,30.28,South,173,1.0,8.0,62,0.00,FEW,OVC,0.09,WeatherDisplay:10.37,2013-02-09 21:45:00,
2013-02-09 16:50:00,32.9,21.3,30.28,South,180,3.0,7.0,62,0.00,FEW,OVC,0.09,WeatherDisplay:10.37,2013-02-09 21:50:00,
2013-02-09 17:00:00,32.8,21.6,30.27,SE,140,2.0,10.0,63,0.00,FEW,OVC,0.09,WeatherDisplay:10.37,2013-02-09 22:00:00,
2013-02-09 17:05:00,32.7,21.5,30.27,SE,136,3.0,5.0,63,0.00,FEW,OVC,0.09,WeatherDisplay:10.37,2013-02-09 22:05:00,
2013-02-09 17:10:00,32.6,21.4,30.27,SSE,149,3.0,7.0,63,0.00,FEW,OVC,0.10,WeatherDisplay:10.37,2013-02-09 22:10:00,
2013-02-09 17:15:00,32.6,21.4,30.27,SE,143,1.0,5.0,63,0.00,FEW,OVC,0.10,WeatherDisplay:10.37,2013-02-09 22:15:00,
2013-02-09 17:20:00,32.5,21.3,30.27,SE,139,1.0,5.0,63,0.00,FEW,OVC,0.10,WeatherDisplay:10.37,2013-02-09 22:20:00,
2013-02-09 17:25:00,32.5,21.3,30.27,SE,142,0.0,4.0,63,0.00,FEW,OVC,0.10,WeatherDisplay:10.37,2013-02-09 22:25:00,
2013-02-09 17:30:00,32.4,21.6,30.27,SE,145,1.0,4.0,64,0.00,FEW,OVC,0.10,WeatherDisplay:10.37,2013-02-09 22:30:00,
2013-02-09 17:35:00,32.1,21.3,30.26,SE,134,1.0,7.0,64,0.00,FEW,OVC,0.10,WeatherDisplay:10.37,2013-02-09 22:35:00,
2013-02-09 17:40:00,31.9,21.5,30.26,SE,131,2.0,6.0,65,0.00,FEW,OVC,0.10,WeatherDisplay:10.37,2013-02-09 22:40:00,
2013-02-09 17:45:00,31.5,21.1,30.26,SSE,150,2.0,5.0,65,0.00,FEW,OVC,0.10,WeatherDisplay:10.37,2013-02-09 22:45:00,
2013-02-09 17:50:00,31.2,21.2,30.26,SSE,149,3.0,8.0,66,0.00,FEW,OVC,0.10,WeatherDisplay:10.37,2013-02-09 22:50:00,
2013-02-09 17:55:00,31.0,21.3,30.26,SSE,149,1.0,4.0,67,0.00,FEW,OVC,0.10,WeatherDisplay:10.37,2013-02-09 22:55:00,
2013-02-09 18:00:00,30.6,21.0,30.26,SE,137,2.0,5.0,67,0.00,FEW,OVC,0.10,WeatherDisplay:10.37,2013-02-09 23:00:00,
2013-02-09 18:05:00,30.4,21.1,30.26,SE,146,2.0,8.0,68,0.00,FEW,OVC,0.10,WeatherDisplay:10.37,2013-02-09 23:05:00,
2013-02-09 18:10:00,30.2,20.9,30.25,SE,146,1.0,7.0,68,0.00,FEW,OVC,0.10,WeatherDisplay:10.37,2013-02-09 23:10:00,
2013-02-09 18:15:00,30.1,20.8,30.25,SE,142,1.0,4.0,68,0.00,FEW,OVC,0.10,WeatherDisplay:10.37,2013-02-09 23:15:00,
2013-02-09 18:20:00,29.9,20.6,30.25,SE,141,2.0,5.0,68,0.00,FEW,OVC,0.10,WeatherDisplay:10.37,2013-02-09 23:20:00,
2013-02-09 18:30:00,29.4,20.5,30.25,SE,124,1.0,4.0,69,0.00,FEW,OVC,0.10,WeatherDisplay:10.37,2013-02-09 23:30:00,
2013-02-09 18:35:00,29.2,20.6,30.25,ESE,115,0.0,5.0,70,0.00,FEW,OVC,0.10,WeatherDisplay:10.37,2013-02-09 23:35:00,
2013-02-09 18:40:00,29.0,20.4,30.25,ESE,123,1.0,3.0,70,0.00,FEW,OVC,0.10,WeatherDisplay:10.37,2013-02-09 23:40:00,
2013-02-09 18:45:00,28.8,20.2,30.25,SE,134,2.0,3.0,70,0.00,FEW,OVC,0.10,WeatherDisplay:10.37,2013-02-09 23:45:00,
2013-02-09 18:50:00,28.6,20.4,30.25,SE,137,1.0,4.0,71,0.00,FEW,OVC,0.10,WeatherDisplay:10.37,2013-02-09 23:50:00,
2013-02-09 18:55:00,28.5,20.3,30.25,SE,129,1.0,4.0,71,0.00,FEW,OVC,0.10,WeatherDisplay:10.37,2013-02-09 23:55:00,
2013-02-09 19:00:00,28.4,20.2,30.25,SE,133,0.0,3.0,71,0.00,FEW,OVC,0.10,WeatherDisplay:10.37,2013-02-10 00:00:00,
2013-02-09 19:05:00,28.2,20.3,30.25,SE,143,0.0,3.0,72,0.00,FEW,OVC,0.10,WeatherDisplay:10.37,2013-02-10 00:05:00,
2013-02-09 19:10:00,28.0,20.1,30.25,SE,134,0.0,3.0,72,0.00,FEW,OVC,0.10,WeatherDisplay:10.37,2013-02-10 00:10:00,
2013-02-09 19:15:00,27.9,20.0,30.25,SE,131,0.0,3.0,72,0.00,FEW,OVC,0.10,WeatherDisplay:10.37,2013-02-10 00:15:00,
2013-02-09 19:20:00,27.7,20.2,30.25,SE,136,0.0,2.0,73,0.00,FEW,OVC,0.10,WeatherDisplay:10.37,2013-02-10 00:20:00,
2013-02-09 19:25:00,27.4,19.9,30.25,SE,128,1.0,2.0,73,0.00,FEW,OVC,0.10,WeatherDisplay:10.37,2013-02-10 00:25:00,
2013-02-09 19:30:00,27.3,19.8,30.25,SE,134,1.0,5.0,73,0.00,FEW,OVC,0.10,WeatherDisplay:10.37,2013-02-10 00:30:00,
2013-02-09 19:40:00,27.1,19.9,30.25,SE,134,1.0,4.0,74,0.00,FEW,OVC,0.10,WeatherDisplay:10.37,2013-02-10 00:40:00,
2013-02-09 19:45:00,27.1,19.9,30.25,ESE,114,0.0,3.0,74,0.00,FEW,OVC,0.10,WeatherDisplay:10.37,2013-02-10 00:45:00,
2013-02-09 19:50:00,27.0,19.8,30.25,SE,130,1.0,3.0,74,0.00,FEW,OVC,0.10,WeatherDisplay:10.37,2013-02-10 00:50:00,
2013-02-09 19:55:00,27.0,19.9,30.25,SE,132,1.0,3.0,74,0.00,FEW,OVC,0.10,WeatherDisplay:10.37,2013-02-10 00:55:00,
2013-02-09 20:00:00,26.9,19.7,30.25,SE,131,1.0,7.0,74,0.00,FEW,OVC,0.10,WeatherDisplay:10.37,2013-02-10 01:00:00,
2013-02-09 20:05:00,26.9,19.7,30.25,SE,136,1.0,7.0,74,0.00,FEW,OVC,0.10,WeatherDisplay:10.37,2013-02-10 01:05:00,
2013-02-09 20:10:00,26.8,19.6,30.25,ESE,122,2.0,7.0,74,0.00,FEW,OVC,0.10,WeatherDisplay:10.37,2013-02-10 01:10:00,
2013-02-09 20:20:00,26.8,19.6,30.24,SE,129,1.0,5.0,74,0.00,FEW,OVC,0.10,WeatherDisplay:10.37,2013-02-10 01:20:00,
2013-02-09 20:25:00,26.8,19.6,30.25,SE,127,1.0,4.0,74,0.00,FEW,OVC,0.10,WeatherDisplay:10.37,2013-02-10 01:25:00,
2013-02-09 20:30:00,26.8,19.6,30.25,SE,127,0.0,3.0,74,0.00,FEW,OVC,0.10,WeatherDisplay:10.37,2013-02-10 01:30:00,
2013-02-09 20:35:00,26.6,19.4,30.24,SE,130,0.0,2.0,74,0.00,FEW,OVC,0.10,WeatherDisplay:10.37,2013-02-10 01:35:00,
2013-02-09 20:40:00,26.4,19.6,30.24,SE,129,1.0,4.0,75,0.00,FEW,OVC,0.10,WeatherDisplay:10.37,2013-02-10 01:40:00,
2013-02-09 20:45:00,26.2,19.4,30.24,ESE,123,0.0,3.0,75,0.00,FEW,OVC,0.10,WeatherDisplay:10.37,2013-02-10 01:45:00,
2013-02-09 20:50:00,26.0,19.2,30.24,ESE,110,0.0,4.0,75,0.00,FEW,OVC,0.10,WeatherDisplay:10.37,2013-02-10 01:50:00,
2013-02-09 20:55:00,25.7,18.9,30.24,ESE,117,0.0,7.0,75,0.00,FEW,OVC,0.10,WeatherDisplay:10.37,2013-02-10 01:55:00,
2013-02-09 21:00:00,25.6,19.1,30.24,SE,136,1.0,5.0,76,0.00,SCT,OVC,0.10,WeatherDisplay:10.37,2013-02-10 02:00:00,
2013-02-09 21:05:00,25.5,19.0,30.24,SE,140,1.0,3.0,76,0.00,SCT,OVC,0.10,WeatherDisplay:10.37,2013-02-10 02:05:00,
2013-02-09 21:10:00,25.5,19.0,30.24,SE,137,0.0,2.0,76,0.00,SCT,OVC,0.10,WeatherDisplay:10.37,2013-02-10 02:10:00,
2013-02-09 21:15:00,25.3,18.8,30.24,SE,128,1.0,3.0,76,0.00,SCT,OVC,0.10,WeatherDisplay:10.37,2013-02-10 02:15:00,
2013-02-09 21:20:00,25.2,18.7,30.24,ESE,118,1.0,3.0,76,0.00,SCT,OVC,0.10,WeatherDisplay:10.37,2013-02-10 02:20:00,
2013-02-09 21:25:00,25.1,18.6,30.24,ESE,111,1.0,5.0,76,0.00,SCT,OVC,0.10,WeatherDisplay:10.37,2013-02-10 02:25:00,
2013-02-09 21:30:00,25.0,18.5,30.23,ESE,107,1.0,5.0,76,0.00,SCT,OVC,0.10,WeatherDisplay:10.37,2013-02-10 02:30:00,
2013-02-09 21:35:00,24.9,18.7,30.23,ESE,111,1.0,3.0,77,0.00,SCT,OVC,0.10,WeatherDisplay:10.37,2013-02-10 02:35:00,
2013-02-09 21:40:00,24.8,18.6,30.23,ESE,113,0.0,3.0,77,0.00,SCT,OVC,0.10,WeatherDisplay:10.37,2013-02-10 02:40:00,
2013-02-09 21:45:00,24.7,18.5,30.23,ESE,114,0.0,2.0,77,0.00,SCT,OVC,0.10,WeatherDisplay:10.37,2013-02-10 02:45:00,
2013-02-09 21:50:00,24.6,18.4,30.23,SE,131,0.0,7.0,77,0.00,SCT,OVC,0.10,WeatherDisplay:10.37,2013-02-10 02:50:00,
2013-02-09 21:55:00,24.6,18.7,30.23,SE,133,2.0,5.0,78,0.00,SCT,OVC,0.10,WeatherDisplay:10.37,2013-02-10 02:55:00,
2013-02-09 22:00:00,24.7,18.8,30.23,ESE,115,0.0,5.0,78,0.00,SCT,OVC,0.10,WeatherDisplay:10.37,2013-02-10 03:00:00,
2013-02-09 22:05:00,24.5,18.4,30.22,ESE,105,0.0,2.0,77,0.00,SCT,OVC,0.10,WeatherDisplay:10.37,2013-02-10 03:05:00,
2013-02-09 22:10:00,24.3,18.1,30.22,ESE,109,0.0,2.0,77,0.00,SCT,OVC,0.10,WeatherDisplay:10.37,2013-02-10 03:10:00,
2013-02-09 22:15:00,24.0,18.1,30.22,ENE,70,1.0,3.0,78,0.00,SCT,OVC,0.10,WeatherDisplay:10.37,2013-02-10 03:15:00,
2013-02-09 22:20:00,23.9,18.3,30.22,East,91,0.0,2.0,79,0.00,SCT,OVC,0.10,WeatherDisplay:10.37,2013-02-10 03:20:00,
2013-02-09 22:25:00,23.8,18.2,30.22,SE,133,0.0,1.0,79,0.00,SCT,OVC,0.10,WeatherDisplay:10.37,2013-02-10 03:25:00,
2013-02-09 22:30:00,23.7,18.1,30.22,SE,136,1.0,5.0,79,0.00,SCT,OVC,0.10,WeatherDisplay:10.37,2013-02-10 03:30:00,
2013-02-09 22:35:00,23.8,18.5,30.22,SE,131,0.0,3.0,80,0.00,SCT,OVC,0.10,WeatherDisplay:10.37,2013-02-10 03:35:00,
2013-02-09 22:40:00,23.9,18.6,30.22,SE,134,2.0,7.0,80,0.00,SCT,OVC,0.10,WeatherDisplay:10.37,2013-02-10 03:40:00,
2013-02-09 22:45:00,24.0,18.7,30.22,SE,129,2.0,4.0,80,0.00,SCT,OVC,0.10,WeatherDisplay:10.37,2013-02-10 03:45:00,
2013-02-09 22:50:00,24.2,18.6,30.22,SE,129,1.0,3.0,79,0.00,SCT,OVC,0.10,WeatherDisplay:10.37,2013-02-10 03:50:00,
2013-02-09 22:55:00,24.2,18.6,30.22,SE,130,2.0,6.0,79,0.00,SCT,OVC,0.10,WeatherDisplay:10.37,2013-02-10 03:55:00,
2013-02-09 23:00:00,24.2,18.6,30.21,SE,136,0.0,4.0,79,0.00,SCT,OVC,0.10,WeatherDisplay:10.37,2013-02-10 04:00:00,
2013-02-09 23:05:00,24.1,18.6,30.21,SE,127,1.0,4.0,79,0.00,SCT,OVC,0.10,WeatherDisplay:10.37,2013-02-10 04:05:00,
2013-02-09 23:10:00,24.2,18.6,30.21,SE,128,1.0,5.0,79,0.00,SCT,OVC,0.10,WeatherDisplay:10.37,2013-02-10 04:10:00,
2013-02-09 23:15:00,24.2,18.6,30.21,SE,136,1.0,3.0,79,0.00,SCT,OVC,0.10,WeatherDisplay:10.37,2013-02-10 04:15:00,
2013-02-09 23:20:00,24.1,18.6,30.21,SE,135,2.0,6.0,79,0.00,SCT,OVC,0.10,WeatherDisplay:10.37,2013-02-10 04:20:00,
2013-02-09 23:25:00,24.2,18.6,30.21,ESE,118,0.0,5.0,79,0.00,SCT,OVC,0.10,WeatherDisplay:10.37,2013-02-10 04:25:00,
2013-02-09 23:30:00,24.1,18.5,30.20,East,95,0.0,2.0,79,0.00,SCT,OVC,0.10,WeatherDisplay:10.37,2013-02-10 04:30:00,
2013-02-09 23:35:00,23.9,18.4,30.20,ESE,119,1.0,3.0,79,0.00,SCT,OVC,0.10,WeatherDisplay:10.37,2013-02-10 04:35:00,
2013-02-09 23:40:00,23.9,18.6,30.20,SE,132,1.0,6.0,80,0.00,SCT,OVC,0.10,WeatherDisplay:10.37,2013-02-10 04:40:00,
2013-02-09 23:45:00,23.9,18.6,30.20,SE,133,0.0,2.0,80,0.00,SCT,OVC,0.10,WeatherDisplay:10.37,2013-02-10 04:45:00,
2013-02-09 23:50:00,23.8,18.5,30.20,SE,133,1.0,4.0,80,0.00,SCT,OVC,0.10,WeatherDisplay:10.37,2013-02-10 04:50:00,